Date String (YYYY-MM-DD hh:mm:ss) UTC,Instrument flags,absolute air pressure of the measurement (hPa),sample flow rate (lpm),inlet stack bypass flow (lpm),air temperature of the measurement (°C),ambient temperature measured by the external sensor (°C),aerosol sample conditioner tube jacket temperature (°C),OPC LED temperature (°C),internal box temperature (°C),relative humidity of the measurement (%),span deviation,mass concentration of particles derived from Lorenz-Mie calculation of OPC scattering (μg/m³),mass concentration of particles derived from Lorenz-Mie calculation of OPC scattering (μg/m³),mass concentration of particles derived from Lorenz-Mie calculation of OPC scattering (μg/m³)
DateTimeUTC,F1_M11,P_M11,Q1_M11,Q2_M11,T1_M11,T2_M11,T3_M11,T4_M11,T5_M11,U1_M11,ZSPAN_M11,X2_M11,X0_M11,X1_M11
2024-03-28 20:00:00,SystemResetWarning,0822.2,5.00,000.00,022.8,022.3,000.0,031.0,024.6,12.2,0000.0,0004.20,0010.15,0003.62
2024-03-28 20:01:00,SystemResetWarning,0822.3,4.99,000.00,022.8,022.4,000.0,031.0,024.6,11.9,0000.0,0004.20,0010.74,0003.61
2024-03-28 20:02:00,SystemResetWarning,0822.3,4.99,000.00,022.8,022.4,000.0,031.0,024.7,12.4,0000.0,0004.19,0011.24,0003.60
2024-03-28 20:03:00,SystemResetWarning,0822.2,5.01,000.00,022.9,022.4,000.0,031.1,024.7,12.0,0000.0,0004.19,0011.30,0003.59
2024-03-28 20:04:00,SystemResetWarning,0822.2,5.01,000.00,022.9,022.4,000.0,031.1,024.7,11.5,0000.0,0004.10,0011.10,0003.50
2024-03-28 20:05:00,SystemResetWarning,0822.2,5.01,000.00,022.9,022.4,000.0,031.1,024.7,12.1,0000.0,0003.98,0010.89,0003.38
2024-03-28 20:06:00,SystemResetWarning,0822.1,5.00,000.00,022.9,022.5,000.0,031.1,024.8,11.1,0000.0,0003.92,0011.89,0003.27
2024-03-28 20:07:00,SystemResetWarning,0822.1,4.99,000.00,022.9,022.5,000.0,031.1,024.8,11.9,0000.0,0003.78,0012.16,0003.17
2024-03-28 20:08:00,SystemResetWarning,0822.1,4.99,000.00,023.0,022.5,000.0,031.2,024.8,10.8,0000.0,0003.66,0012.62,0003.02
2024-03-28 20:09:00,SystemResetWarning,0822.0,5.00,000.00,023.0,022.5,000.0,031.2,024.8,10.4,0000.0,0003.55,0012.18,0002.84
2024-03-28 20:10:00,SystemResetWarning,0822.0,5.00,000.00,023.0,022.5,000.0,031.2,024.8,10.6,0000.0,0003.48,0012.05,0002.70
2024-03-28 20:11:00,SystemResetWarning,0822.0,5.00,000.00,023.0,022.5,000.0,031.2,024.8,10.8,0000.0,0003.37,0011.15,0002.53
2024-03-28 20:12:00,SystemResetWarning,0822.0,5.00,000.00,023.0,022.5,000.0,031.2,024.8,10.3,0000.0,0003.27,0010.61,0002.39
2024-03-28 20:13:00,SystemResetWarning,0822.0,5.01,000.00,023.0,022.5,000.0,031.3,024.8,10.2,0000.0,0003.18,0009.50,0002.22
2024-03-28 20:14:00,SystemResetWarning,0822.0,5.00,000.00,023.0,022.5,000.0,031.3,024.8,10.4,0000.0,0003.06,0009.06,0002.07
2024-03-28 20:15:00,SystemResetWarning,0822.0,5.00,000.00,023.1,022.5,000.0,031.3,024.8,10.6,0000.0,0002.97,0008.84,0002.00
2024-03-28 20:16:00,SystemResetWarning,0821.9,5.00,000.00,023.1,022.5,000.0,031.3,024.9,10.4,0000.0,0002.90,0008.77,0001.96
2024-03-28 20:17:00,SystemResetWarning,0821.9,5.00,000.00,023.1,022.6,000.0,031.3,024.9,10.8,0000.0,0002.75,0007.98,0001.91
2024-03-28 20:18:00,SystemResetWarning,0821.9,4.99,000.00,023.1,022.6,000.0,031.3,024.9,11.1,0000.0,0002.72,0006.78,0001.89
2024-03-28 20:19:00,SystemResetWarning,0822.0,5.00,000.00,023.1,022.6,000.0,031.3,024.9,10.9,0000.0,0002.76,0007.69,0001.88
2024-03-28 20:20:00,SystemResetWarning,0822.0,5.00,000.00,023.1,022.6,000.0,031.4,024.9,10.5,0000.0,0002.85,0007.82,0001.89
2024-03-28 20:21:00,SystemResetWarning,0821.9,5.00,000.00,023.1,022.6,000.0,031.4,024.9,11.0,0000.0,0002.87,0008.02,0001.88
2024-03-28 20:22:00,SystemResetWarning,0821.9,5.00,000.00,023.1,022.6,000.0,031.4,024.9,09.9,0000.0,0002.84,0008.10,0001.86
2024-03-28 20:23:00,SystemResetWarning,0821.9,5.01,000.00,023.1,022.6,000.0,031.4,024.9,10.2,0000.0,0002.84,0008.13,0001.85
2024-03-28 20:24:00,SystemResetWarning,0821.9,5.01,000.00,023.2,022.6,000.0,031.4,024.9,10.5,0000.0,0002.91,0008.36,0001.84
2024-03-28 20:25:00,SystemResetWarning,0821.8,4.99,000.00,023.2,022.6,000.0,031.4,025.0,10.2,0000.0,0002.89,0008.39,0001.83
2024-03-28 20:26:00,SystemResetWarning,0821.7,4.99,000.00,023.2,022.6,000.0,031.5,024.9,10.0,0000.0,0002.86,0008.93,0001.81
2024-03-28 20:27:00,SystemResetWarning,0821.6,4.99,000.00,023.2,022.6,000.0,031.5,025.0,10.1,0000.0,0002.86,0009.20,0001.79
2024-03-28 20:28:00,SystemResetWarning,0821.6,5.00,000.00,023.2,022.6,000.0,031.5,025.0,10.4,0000.0,0002.88,0009.43,0001.79
2024-03-28 20:29:00,SystemResetWarning,0821.6,5.00,000.00,023.2,022.7,000.0,031.5,025.0,10.3,0000.0,0002.84,0009.55,0001.78
2024-03-28 20:30:00,SystemResetWarning,0821.6,5.00,000.00,023.2,022.7,000.0,031.5,025.0,10.5,0000.0,0002.77,0008.20,0001.78
2024-03-28 20:31:00,SystemResetWarning,0821.6,5.01,000.00,023.2,022.7,000.0,031.5,025.0,10.4,0000.0,0002.73,0008.03,0001.77
2024-03-28 20:32:00,SystemResetWarning,0821.6,5.01,000.00,023.3,022.7,000.0,031.5,025.0,10.2,0000.0,0002.71,0008.28,0001.76
2024-03-28 20:33:00,SystemResetWarning,0821.5,5.00,000.00,023.3,022.7,000.0,031.5,025.0,10.6,0000.0,0002.71,0008.46,0001.77
2024-03-28 20:34:00,SystemResetWarning,0821.6,4.99,000.00,023.3,022.7,000.0,031.6,025.0,10.4,0000.0,0002.70,0008.56,0001.80
2024-03-28 20:35:00,SystemResetWarning,0821.8,4.99,000.00,023.3,022.8,000.0,031.6,025.1,10.6,0000.0,0002.65,0008.60,0001.82
2024-03-28 20:36:00,SystemResetWarning,0822.0,5.00,000.00,023.3,022.8,000.0,031.6,025.1,10.6,0000.0,0002.66,0008.62,0001.82
2024-03-28 20:37:00,SystemResetWarning,0822.0,5.01,000.00,023.3,022.8,000.0,031.6,025.1,11.1,0000.0,0002.66,0008.25,0001.82
2024-03-28 20:38:00,SystemResetWarning,0821.8,5.00,000.00,023.3,022.8,000.0,031.6,025.1,10.9,0000.0,0002.66,0008.37,0001.81
2024-03-28 20:39:00,SystemResetWarning,0821.3,5.00,000.00,023.4,022.8,000.0,031.6,025.1,10.4,0000.0,0002.69,0008.61,0001.81
2024-03-28 20:40:00,SystemResetWarning,0821.3,4.99,000.00,023.4,022.8,000.0,031.6,025.1,10.4,0000.0,0002.79,0008.77,0001.82
2024-03-28 20:41:00,SystemResetWarning,0821.3,4.99,000.00,023.4,022.8,000.0,031.6,025.2,10.3,0000.0,0002.79,0008.81,0001.83
2024-03-28 20:42:00,SystemResetWarning,0821.2,5.00,000.00,023.4,022.9,000.0,031.7,025.2,10.3,0000.0,0002.74,0008.76,0001.82
2024-03-28 20:43:00,SystemResetWarning,0821.2,5.00,000.00,023.4,022.9,000.0,031.7,025.2,11.0,0000.0,0002.67,0008.15,0001.80
2024-03-28 20:44:00,SystemResetWarning,0821.2,4.99,000.00,023.4,022.9,000.0,031.7,025.2,10.1,0000.0,0002.67,0007.64,0001.79
2024-03-28 20:45:00,SystemResetWarning,0821.2,5.01,000.00,023.4,022.9,000.0,031.7,025.2,10.5,0000.0,0002.74,0007.74,0001.77
2024-03-28 20:46:00,SystemResetWarning,0821.2,5.00,000.00,023.5,022.9,000.0,031.7,025.2,10.3,0000.0,0002.77,0007.97,0001.75
2024-03-28 20:47:00,SystemResetWarning,0821.2,5.00,000.00,023.5,022.9,000.0,031.7,025.2,10.2,0000.0,0002.79,0008.02,0001.75
2024-03-28 20:48:00,SystemResetWarning,0821.2,5.00,000.00,023.5,022.9,000.0,031.8,025.3,10.3,0000.0,0002.81,0007.70,0001.75
2024-03-28 20:49:00,SystemResetWarning,0821.1,5.00,000.00,023.5,022.9,000.0,031.8,025.3,10.5,0000.0,0002.77,0007.20,0001.73
2024-03-28 20:50:00,SystemResetWarning,0821.2,5.00,000.00,023.5,022.9,000.0,031.8,025.3,10.6,0000.0,0002.73,0006.58,0001.73
2024-03-28 20:51:00,SystemResetWarning,0821.1,5.00,000.00,023.5,023.0,000.0,031.8,025.3,10.5,0000.0,0002.60,0005.69,0001.71
2024-03-28 20:52:00,SystemResetWarning,0821.1,5.00,000.00,023.5,023.0,000.0,031.8,025.3,10.8,0000.0,0002.55,0005.90,0001.68
2024-03-28 20:53:00,SystemResetWarning,0821.2,5.00,000.00,023.5,023.0,000.0,031.8,025.3,10.1,0000.0,0002.58,0005.96,0001.68
2024-03-28 20:54:00,SystemResetWarning,0821.3,4.99,000.00,023.5,023.0,000.0,031.8,025.3,10.2,0000.0,0002.66,0006.22,0001.69
2024-03-28 20:55:00,SystemResetWarning,0821.1,4.99,000.00,023.6,023.0,000.0,031.8,025.4,10.0,0000.0,0002.66,0006.21,0001.67
2024-03-28 20:56:00,SystemResetWarning,0821.1,5.00,000.00,023.6,023.0,000.0,031.9,025.4,10.0,0000.0,0002.63,0006.05,0001.67
2024-03-28 20:57:00,SystemResetWarning,0821.0,5.01,000.00,023.6,023.0,000.0,031.9,025.4,10.0,0000.0,0002.66,0005.08,0001.67
2024-03-28 20:58:00,SystemResetWarning,0821.0,5.01,000.00,023.6,023.1,000.0,031.9,025.4,10.2,0000.0,0002.62,0004.97,0001.68
2024-03-28 20:59:00,SystemResetWarning,0821.0,5.01,000.00,023.6,023.1,000.0,031.9,025.4,10.2,0000.0,0002.54,0004.95,0001.67
